Groton, South Dakota, United States (57445)
Lat: 45.45N, Lon: 98.1W
Wx Zone: SDZ006
Local Info
Past Weather Observations for Sunday, April 20, 2014

NOTE: This archive is for the closest National Weather Service station to Groton. Information may differ from the station used for current weather conditions.

Time Weather Temperature Dewpoint Humidity Pressure Winds Precip Visibility
23:53
Mostly Cloudy
54°F / 12°C 34°F / 1°C 47% 30.01 in
(1016 mb)
N 9.2 mph
(N 15 kph)
- 10SM
22:53
Clear
57°F / 14°C 32°F / 0°C 39% 29.98 in
(1015 mb)
N 13.8 mph
(N 22 kph)
- 10SM
21:53
Clear
63°F / 17°C 34°F / 1°C 34% 29.98 in
(1015 mb)
NNW 16.1 mph
(NNW 26 kph)
- 10SM
20:53
Clear
55°F / 13°C 34°F / 1°C 44% 29.92 in
(1013 mb)
Calm - 10SM
19:53
Clear
64°F / 18°C 30°F / -1°C 28% 29.89 in
(1012 mb)
ESE 6.9 mph
(ESE 11 kph)
- 10SM
18:53
Clear
66°F / 19°C 30°F / -1°C 26% 29.86 in
(1011 mb)
Calm - 10SM
17:53
Clear
75°F / 24°C 28°F / -2°C 18% 29.89 in
(1012 mb)
SW 5.8 mph
(SW 9 kph)
- 10SM
16:53
Partly Cloudy
75°F / 24°C 28°F / -2°C 18% 29.89 in
(1012 mb)
SSE 10.4 mph
(SSE 17 kph)
- 10SM
15:53
Clear
77°F / 25°C 27°F / -3°C 15% 29.89 in
(1012 mb)
SSE 13.8 mph
(SSE 22 kph)
- 10SM
14:53
Mostly Cloudy
75°F / 24°C 27°F / -3°C 16% 29.92 in
(1013 mb)
S 11.5 mph
(S 19 kph)
- 10SM
13:53
Clear
75°F / 24°C 27°F / -3°C 16% 29.92 in
(1013 mb)
SSE 17.3 mph
(SSE 28 kph)
- 10SM
12:53
Mostly Cloudy
73°F / 23°C 28°F / -2°C 19% 29.95 in
(1014 mb)
SSE 12.7 mph
(SSE 20 kph)
- 10SM
11:53
Partly Cloudy
72°F / 22°C 28°F / -2°C 20% 29.98 in
(1015 mb)
S 10.4 mph
(S 17 kph)
- 10SM
10:53
Clear
70°F / 21°C 30°F / -1°C 23% 29.98 in
(1015 mb)
S 11.5 mph
(S 19 kph)
- 10SM
09:53
Clear
59°F / 15°C 37°F / 3°C 45% 30.01 in
(1016 mb)
SE 4.6 mph
(SE 7 kph)
- 10SM
08:53
Clear
52°F / 11°C 36°F / 2°C 54% 30.01 in
(1016 mb)
Variable 3.5 mph
(Variable 6 kph)
- 10SM
07:53
Clear
45°F / 7°C 36°F / 2°C 71% 30.01 in
(1016 mb)
SW 6.9 mph
(SW 11 kph)
- 10SM
06:53
Clear
37°F / 3°C 34°F / 1°C 87% 30.01 in
(1016 mb)
Calm - 10SM
05:53
Clear
34°F / 1°C 30°F / -1°C 87% 30.01 in
(1016 mb)
Calm - 10SM
04:53
Clear
32°F / 0°C 30°F / -1°C 93% 30.01 in
(1016 mb)
NE 6.9 mph
(NE 11 kph)
- 10SM
03:53
Clear
34°F / 1°C 30°F / -1°C 87% 30.01 in
(1016 mb)
ENE 8.1 mph
(ENE 13 kph)
- 10SM
02:53
Clear
36°F / 2°C 30°F / -1°C 81% 30.01 in
(1016 mb)
ENE 6.9 mph
(ENE 11 kph)
- 10SM
01:53
Clear
39°F / 4°C 34°F / 1°C 81% 30.01 in
(1016 mb)
NE 8.1 mph
(NE 13 kph)
- 10SM
00:53
Clear
43°F / 6°C 36°F / 2°C 76% 30.01 in
(1016 mb)
ENE 9.2 mph
(ENE 15 kph)
- 10SM
Time Weather Temperature Dewpoint Humidity Pressure Winds Precip Visibility


Weather for websites

WeatherForYou.com, LLC is not responsible for any damages or problems caused by this service. Current weather conditions are obtained from the closest station including government and personal stations which may have varying degrees of accuracy. Weather forecasts are derived from the NOAA NDFD. Like all things, this site belongs to Jesus Christ... He just trusts me to maintain it. If you have any questions or comments email webmaster@weatherforyou.com

Copyright © 2014, WeatherForYou.com LLC. All rights reserved.